Location: Asheville, NC
(35.6000°N, 82.5500°W)
Time: 17:26:55

Tiangong 2 - Pass Details

Date: 10 March 2018
Orbit: 383 x 388 km, 42.8° (Epoch: 18 March)

Event Time Altitude Azimuth Distance (km) Brightness Sun altitude
Exits shadow 05:30:14 11° 189° (S) 1,321 3.6 -16.6°
Maximum altitude 05:32:23 20° 143° (SE) 953 3.4 -16.2°
Drops below altitude 10° 05:34:49 10° 93° (E) 1,406 5.2 -15.7°
Sets 05:37:13 0° 75° (ENE) 2,264 6.8 -15.2°
